time, Switch, Flow(0), Analog(2)
yyyy/mm/dd HH:MM:SS.fff, True=FILTERED|False=TOTAL, L/min, V
2023/06/22 11:00:02.398, True, 4.381, 0.125658
2023/06/22 11:00:02.902, True, 4.310, 0.129168
2023/06/22 11:00:03.406, True, 4.311, 0.127031
2023/06/22 11:00:03.901, True, 3.707, 0.127260
2023/06/22 11:00:04.406, True, 2.653, 0.127031
2023/06/22 11:00:04.902, True, 1.685, 0.125124
2023/06/22 11:00:05.406, True, 1.658, 0.127413
2023/06/22 11:00:05.910, True, 1.658, 0.127642
2023/06/22 11:00:06.406, True, 1.684, 0.127031
2023/06/22 11:00:06.910, True, 1.658, 0.127031
2023/06/22 11:00:07.414, True, 1.658, 0.126955
2023/06/22 11:00:07.910, True, 1.685, 0.127718
2023/06/22 11:00:08.414, True, 1.658, 0.125658
2023/06/22 11:00:08.918, True, 1.658, 0.126497
2023/06/22 11:00:09.414, True, 1.685, 0.128710
2023/06/22 11:00:09.918, True, 1.659, 0.124971
2023/06/22 11:00:10.422, True, 1.325, 0.126268
2023/06/22 11:00:10.918, True, 1.684, 0.124743
2023/06/22 11:00:11.422, True, 1.659, 0.124666
2023/06/22 11:00:11.926, True, 1.658, 0.128252
2023/06/22 11:00:12.421, True, 1.684, 0.126802
2023/06/22 11:00:12.926, True, 1.659, 0.127108
2023/06/22 11:00:13.429, True, 1.658, 0.125734
2023/06/22 11:00:13.926, True, 1.684, 0.125658
2023/06/22 11:00:14.430, True, 1.658, 0.126192
2023/06/22 11:00:14.934, True, 1.659, 0.125963
2023/06/22 11:00:15.430, True, 1.683, 0.127718
2023/06/22 11:00:15.934, True, 1.326, 0.127565
2023/06/22 11:00:16.438, True, 1.658, 0.127642
2023/06/22 11:00:16.942, True, 1.661, 0.124743
2023/06/22 11:00:17.438, True, 1.684, 0.127642
2023/06/22 11:00:17.942, True, 1.657, 0.127108
2023/06/22 11:00:18.446, True, 1.657, 0.127413
2023/06/22 11:00:18.942, True, 1.685, 0.126879
2023/06/22 11:00:19.446, True, 1.658, 0.125505
2023/06/22 11:00:19.950, True, 1.658, 0.127794
2023/06/22 11:00:20.446, True, 1.686, 0.126802
2023/06/22 11:00:20.950, True, 1.325, 0.126802
2023/06/22 11:00:21.454, True, 1.658, 0.126268
2023/06/22 11:00:21.950, True, 1.685, 0.125505
2023/06/22 11:00:22.454, True, 1.658, 0.124285
2023/06/22 11:00:22.958, True, 1.658, 0.127184
2023/06/22 11:00:23.454, True, 1.684, 0.126650
2023/06/22 11:00:23.958, True, 1.658, 0.127108
2023/06/22 11:00:24.462, True, 1.658, 0.125200
2023/06/22 11:00:24.958, True, 1.685, 0.128328
2023/06/22 11:00:25.462, True, 1.658, 0.126955
2023/06/22 11:00:25.966, True, 1.989, 0.127489
2023/06/22 11:00:26.462, True, 1.685, 0.125353
2023/06/22 11:00:26.965, True, 1.326, 0.126802
2023/06/22 11:00:27.470, True, 1.658, 0.126040
2023/06/22 11:00:27.966, True, 1.685, 0.126192
2023/06/22 11:00:28.470, True, 1.658, 0.126726
2023/06/22 11:00:28.974, True, 1.659, 0.125582
2023/06/22 11:00:29.478, True, 1.658, 0.128176
2023/06/22 11:00:29.974, True, 1.685, 0.124819
2023/06/22 11:00:30.478, True, 1.658, 0.128023
2023/06/22 11:00:30.974, True, 1.685, 0.126345
2023/06/22 11:00:31.478, True, 1.658, 0.126345
2023/06/22 11:00:31.982, True, 1.658, 0.128252
2023/06/22 11:00:32.478, True, 1.348, 0.126116
2023/06/22 11:00:32.982, True, 1.661, 0.127413
2023/06/22 11:00:33.486, True, 1.654, 0.126879
2023/06/22 11:00:33.990, True, 1.658, 0.127489
2023/06/22 11:00:34.486, True, 1.686, 0.127260
2023/06/22 11:00:34.989, True, 1.657, 0.124666
2023/06/22 11:00:35.486, True, 1.685, 0.126650
2023/06/22 11:00:35.990, True, 1.659, 0.128252
2023/06/22 11:00:36.494, True, 1.657, 0.126497
2023/06/22 11:00:36.998, True, 1.990, 0.127871
2023/06/22 11:00:37.494, True, 1.686, 0.126955
2023/06/22 11:00:37.998, True, 1.657, 0.126726
2023/06/22 11:00:38.494, True, 1.348, 0.125963
2023/06/22 11:00:38.998, True, 1.326, 0.126879
2023/06/22 11:00:39.502, True, 1.658, 0.126268
2023/06/22 11:00:39.998, True, 1.684, 0.127031
2023/06/22 11:00:40.502, True, 1.658, 0.128481
2023/06/22 11:00:41.006, True, 1.327, 0.127565
2023/06/22 11:00:41.502, True, 1.685, 0.129168
2023/06/22 11:00:42.006, True, 1.658, 0.126955
2023/06/22 11:00:42.510, True, 1.658, 0.128405
2023/06/22 11:00:43.006, True, 1.348, 0.129473
2023/06/22 11:00:43.510, True, 1.658, 0.129854
2023/06/22 11:00:44.014, True, 1.658, 0.132753
2023/06/22 11:00:44.510, True, 1.348, 0.131456
2023/06/22 11:00:45.014, True, 1.659, 0.134279
2023/06/22 11:00:45.518, True, 1.657, 0.134508
2023/06/22 11:00:46.021, True, 1.658, 0.132296
2023/06/22 11:00:46.518, True, 1.685, 0.134356
2023/06/22 11:00:47.021, True, 1.658, 0.135653
2023/06/22 11:00:47.526, True, 1.658, 0.133898
2023/06/22 11:00:48.021, True, 1.348, 0.135882
2023/06/22 11:00:48.525, True, 1.661, 0.134890
2023/06/22 11:00:49.030, True, 1.656, 0.135729
2023/06/22 11:00:49.525, True, 1.686, 0.133059
2023/06/22 11:00:50.029, True, 1.656, 0.135576
2023/06/22 11:00:50.534, True, 1.660, 0.136110
2023/06/22 11:00:51.029, True, 1.347, 0.136721
2023/06/22 11:00:51.534, True, 1.326, 0.134813
2023/06/22 11:00:52.038, True, 1.661, 0.134432
2023/06/22 11:00:52.542, True, 1.655, 0.136721
2023/06/22 11:00:53.037, True, 1.684, 0.136416
2023/06/22 11:00:53.541, True, 1.661, 0.138781
2023/06/22 11:00:54.046, True, 1.657, 0.135424
2023/06/22 11:00:54.542, True, 2.020, 0.139086
2023/06/22 11:00:55.046, True, 1.659, 0.135348
2023/06/22 11:00:55.550, True, 1.659, 0.136492
2023/06/22 11:00:56.045, True, 1.686, 0.134737
2023/06/22 11:00:56.550, True, 1.655, 0.138323
2023/06/22 11:00:57.054, True, 1.327, 0.137636
2023/06/22 11:00:57.558, True, 1.658, 0.138476
2023/06/22 11:00:58.054, True, 1.684, 0.138476
2023/06/22 11:00:58.558, True, 1.327, 0.138933
2023/06/22 11:00:59.062, True, 1.657, 0.138476
2023/06/22 11:00:59.558, True, 1.348, 0.137102
2023/06/22 11:01:00.062, True, 1.660, 0.141070
2023/06/22 11:01:00.566, True, 1.655, 0.140459
2023/06/22 11:01:01.062, True, 1.685, 0.140459
2023/06/22 11:01:01.566, True, 1.327, 0.137789
2023/06/22 11:01:02.070, True, 1.658, 0.139239
2023/06/22 11:01:02.566, True, 1.685, 0.139544
2023/06/22 11:01:03.070, True, 1.660, 0.137942
2023/06/22 11:01:03.574, True, 1.656, 0.140383
2023/06/22 11:01:04.077, True, 1.658, 0.136645
2023/06/22 11:01:04.574, True, 1.685, 0.137102
2023/06/22 11:01:05.078, True, 1.659, 0.136797
2023/06/22 11:01:05.582, True, 1.657, 0.138857
2023/06/22 11:01:06.078, True, 1.685, 0.136645
2023/06/22 11:01:06.582, True, 1.658, 0.140459
2023/06/22 11:01:07.086, True, 1.658, 0.139086
2023/06/22 11:01:07.582, True, 1.688, 0.138399
2023/06/22 11:01:08.086, True, 1.655, 0.141146
2023/06/22 11:01:08.590, True, 1.658, 0.137636
2023/06/22 11:01:09.094, True, 1.658, 0.137713
2023/06/22 11:01:09.590, True, 1.685, 0.137942
2023/06/22 11:01:10.094, True, 1.661, 0.137636
2023/06/22 11:01:10.598, True, 1.990, 0.138018
2023/06/22 11:01:11.094, True, 1.684, 0.140154
2023/06/22 11:01:11.598, True, 1.655, 0.138552
2023/06/22 11:01:12.102, True, 1.658, 0.138857
2023/06/22 11:01:12.598, True, 1.685, 0.141222
2023/06/22 11:01:13.102, True, 1.658, 0.140154
2023/06/22 11:01:13.606, True, 1.658, 0.139620
2023/06/22 11:01:14.102, True, 1.685, 0.139696
2023/06/22 11:01:14.606, True, 1.658, 0.139620
2023/06/22 11:01:15.102, True, 1.685, 0.140612
2023/06/22 11:01:15.606, True, 1.658, 0.139925
2023/06/22 11:01:16.110, True, 1.658, 0.138323
2023/06/22 11:01:16.605, True, 1.685, 0.138247
2023/06/22 11:01:17.110, True, 1.659, 0.139315
2023/06/22 11:01:17.614, True, 1.657, 0.139849
2023/06/22 11:01:18.118, True, 1.658, 0.138399
2023/06/22 11:01:18.614, True, 1.348, 0.140307
2023/06/22 11:01:19.118, True, 1.658, 0.140002
2023/06/22 11:01:19.622, True, 1.658, 0.139391
2023/06/22 11:01:20.118, True, 1.685, 0.139620
2023/06/22 11:01:20.622, True, 1.658, 0.139467
2023/06/22 11:01:21.126, True, 1.659, 0.137407
2023/06/22 11:01:21.622, True, 1.684, 0.140993
2023/06/22 11:01:22.126, True, 1.327, 0.140459
2023/06/22 11:01:22.622, True, 1.684, 0.138933
2023/06/22 11:01:23.126, True, 1.658, 0.138552
2023/06/22 11:01:23.630, True, 1.990, 0.138094
2023/06/22 11:01:24.126, True, 1.686, 0.139544
2023/06/22 11:01:24.630, True, 1.657, 0.137636
2023/06/22 11:01:25.134, True, 1.658, 0.140612
2023/06/22 11:01:25.629, True, 1.685, 0.137942
2023/06/22 11:01:26.134, True, 1.326, 0.138933
2023/06/22 11:01:26.638, True, 1.658, 0.138857
2023/06/22 11:01:27.134, True, 1.685, 0.139162
2023/06/22 11:01:27.638, True, 1.658, 0.139467
2023/06/22 11:01:28.134, True, 1.685, 0.139696
2023/06/22 11:01:28.638, True, 1.326, 0.137407
2023/06/22 11:01:29.142, True, 1.658, 0.140688
2023/06/22 11:01:29.638, True, 1.684, 0.139391
2023/06/22 11:01:30.142, True, 1.326, 0.138399
2023/06/22 11:01:30.646, True, 1.658, 0.138018
2023/06/22 11:01:31.141, True, 1.688, 0.139010
2023/06/22 11:01:31.646, True, 1.655, 0.138552
2023/06/22 11:01:32.149, True, 1.658, 0.139696
2023/06/22 11:01:32.646, True, 1.684, 0.139925
2023/06/22 11:01:33.150, True, 1.658, 0.137942
2023/06/22 11:01:33.654, True, 1.658, 0.138705
2023/06/22 11:01:34.150, True, 1.685, 0.139544
2023/06/22 11:01:34.654, True, 1.658, 0.137102
2023/06/22 11:01:35.158, True, 1.659, 0.136645
2023/06/22 11:01:35.654, True, 1.684, 0.139162
2023/06/22 11:01:36.158, True, 1.658, 0.138018
2023/06/22 11:01:36.662, True, 1.658, 0.138857
2023/06/22 11:01:37.157, True, 1.685, 0.138552
2023/06/22 11:01:37.662, True, 1.658, 0.139773
2023/06/22 11:01:38.165, True, 1.658, 0.140078
2023/06/22 11:01:38.662, True, 1.685, 0.138247
2023/06/22 11:01:39.166, True, 1.661, 0.138247
2023/06/22 11:01:39.670, True, 1.655, 0.138705
2023/06/22 11:01:40.166, True, 1.685, 0.139620
2023/06/22 11:01:40.669, True, 1.658, 0.136873
2023/06/22 11:01:41.174, True, 1.658, 0.140764
2023/06/22 11:01:41.670, True, 2.022, 0.137560
2023/06/22 11:01:42.174, True, 1.658, 0.139315
2023/06/22 11:01:42.678, True, 1.658, 0.137407
2023/06/22 11:01:43.174, True, 1.348, 0.139773
2023/06/22 11:01:43.678, True, 1.990, 0.138018
2023/06/22 11:01:44.182, True, 1.328, 0.138552
2023/06/22 11:01:44.677, True, 1.682, 0.139467
2023/06/22 11:01:45.182, True, 1.658, 0.140459
2023/06/22 11:01:45.686, True, 1.326, 0.137026
2023/06/22 11:01:46.182, True, 1.685, 0.140230
2023/06/22 11:01:46.686, True, 1.326, 0.137713
2023/06/22 11:01:47.182, True, 1.685, 0.139391
2023/06/22 11:01:47.686, True, 1.657, 0.139544
2023/06/22 11:01:48.190, True, 1.659, 0.137789
2023/06/22 11:01:48.686, True, 1.685, 0.139925
2023/06/22 11:01:49.189, True, 1.657, 0.137865
2023/06/22 11:01:49.694, True, 1.659, 0.138247
2023/06/22 11:01:50.190, True, 1.685, 0.139620
2023/06/22 11:01:50.693, True, 1.657, 0.138247
2023/06/22 11:01:51.198, True, 1.659, 0.138323
2023/06/22 11:01:51.693, True, 1.687, 0.136568
2023/06/22 11:01:52.197, True, 1.655, 0.138933
2023/06/22 11:01:52.702, True, 1.991, 0.138705
2023/06/22 11:01:53.198, True, 1.348, 0.138094
2023/06/22 11:01:53.701, True, 1.988, 0.138933
2023/06/22 11:01:54.206, True, 1.328, 0.137636
2023/06/22 11:01:54.702, True, 1.685, 0.137713
2023/06/22 11:01:55.205, True, 1.656, 0.138018
2023/06/22 11:01:55.710, True, 1.660, 0.138781
2023/06/22 11:01:56.206, True, 1.683, 0.137560
2023/06/22 11:01:56.709, True, 1.989, 0.137713
2023/06/22 11:01:57.205, True, 1.685, 0.139620
2023/06/22 11:01:57.710, True, 1.658, 0.140459
2023/06/22 11:01:58.214, True, 1.658, 0.137942
2023/06/22 11:01:58.718, True, 1.327, 0.138705
2023/06/22 11:01:59.213, True, 1.685, 0.138476
2023/06/22 11:01:59.717, True, 1.989, 0.136187
2023/06/22 11:02:00.222, True, 1.658, 0.138781
2023/06/22 11:02:00.718, True, 1.685, 0.136339
2023/06/22 11:02:01.222, True, 1.658, 0.137179
2023/06/22 11:02:01.726, True, 1.657, 0.137255
2023/06/22 11:02:02.222, True, 1.685, 0.136492
2023/06/22 11:02:02.725, True, 1.659, 0.139315
2023/06/22 11:02:03.230, True, 1.657, 0.137865
2023/06/22 11:02:03.726, True, 1.685, 0.136187
2023/06/22 11:02:04.230, True, 1.661, 0.136568
2023/06/22 11:02:04.734, True, 1.656, 0.136873
2023/06/22 11:02:05.230, True, 1.348, 0.140764
2023/06/22 11:02:05.734, True, 1.658, 0.137331
2023/06/22 11:02:06.238, True, 1.658, 0.138018
2023/06/22 11:02:06.734, True, 1.685, 0.137407
2023/06/22 11:02:07.238, True, 1.658, 0.137179
2023/06/22 11:02:07.742, True, 1.660, 0.139239
2023/06/22 11:02:08.237, True, 1.684, 0.136568
2023/06/22 11:02:08.742, True, 1.657, 0.137026
2023/06/22 11:02:09.246, True, 1.326, 0.138628
2023/06/22 11:02:09.749, True, 1.658, 0.136873
2023/06/22 11:02:10.246, True, 1.685, 0.136645
2023/06/22 11:02:10.750, True, 1.658, 0.138399
2023/06/22 11:02:11.253, True, 1.658, 0.138476
2023/06/22 11:02:11.749, True, 1.685, 0.138094
2023/06/22 11:02:12.254, True, 1.658, 0.136416
2023/06/22 11:02:12.757, True, 1.327, 0.138705
2023/06/22 11:02:13.253, True, 1.684, 0.136492
2023/06/22 11:02:13.758, True, 1.658, 0.137026
2023/06/22 11:02:14.254, True, 1.685, 0.135729
2023/06/22 11:02:14.757, True, 1.658, 0.136645
2023/06/22 11:02:15.261, True, 1.660, 0.136568
2023/06/22 11:02:15.758, True, 1.683, 0.135348
2023/06/22 11:02:16.261, True, 1.658, 0.135882
2023/06/22 11:02:16.765, True, 1.658, 0.137179
2023/06/22 11:02:17.261, True, 1.348, 0.137713
2023/06/22 11:02:17.766, True, 1.658, 0.137484
2023/06/22 11:02:18.269, True, 1.658, 0.137407
2023/06/22 11:02:18.765, True, 1.685, 0.137942
2023/06/22 11:02:19.270, True, 1.990, 0.137865
2023/06/22 11:02:19.774, True, 1.661, 0.135958
2023/06/22 11:02:20.269, True, 1.682, 0.136416
2023/06/22 11:02:20.773, True, 1.658, 0.138247
2023/06/22 11:02:21.277, True, 1.990, 0.137942
2023/06/22 11:02:21.774, True, 1.688, 0.137865
2023/06/22 11:02:22.278, True, 1.654, 0.136568
2023/06/22 11:02:22.782, True, 1.659, 0.136873
2023/06/22 11:02:23.278, True, 1.685, 0.138323
2023/06/22 11:02:23.782, True, 1.660, 0.135653
2023/06/22 11:02:24.285, True, 1.656, 0.133745
2023/06/22 11:02:24.782, True, 1.686, 0.137255
2023/06/22 11:02:25.286, True, 1.657, 0.135271
2023/06/22 11:02:25.789, True, 1.326, 0.134737
2023/06/22 11:02:26.286, True, 1.687, 0.137942
2023/06/22 11:02:26.790, True, 1.657, 0.137179
2023/06/22 11:02:27.294, True, 1.325, 0.136187
2023/06/22 11:02:27.798, True, 1.658, 0.136645
2023/06/22 11:02:28.293, True, 1.351, 0.133516
2023/06/22 11:02:28.798, True, 1.655, 0.134432
2023/06/22 11:02:29.301, True, 1.657, 0.134432
2023/06/22 11:02:29.798, True, 1.685, 0.133745
2023/06/22 11:02:30.301, True, 1.658, 0.135424
2023/06/22 11:02:30.805, True, 1.658, 0.136416
2023/06/22 11:02:31.301, True, 1.688, 0.133593
2023/06/22 11:02:31.805, True, 1.324, 0.136263
2023/06/22 11:02:32.310, True, 1.658, 0.137407
2023/06/22 11:02:32.806, True, 1.685, 0.134966
2023/06/22 11:02:33.309, True, 1.326, 0.136645
2023/06/22 11:02:33.814, True, 1.658, 0.134737
2023/06/22 11:02:34.310, True, 1.688, 0.134356
2023/06/22 11:02:34.813, True, 1.655, 0.135500
2023/06/22 11:02:35.317, True, 1.328, 0.134661
2023/06/22 11:02:35.814, True, 1.683, 0.134585
2023/06/22 11:02:36.317, True, 1.657, 0.133211
2023/06/22 11:02:36.821, True, 1.660, 0.135805
2023/06/22 11:02:37.318, True, 1.346, 0.135500
2023/06/22 11:02:37.821, True, 1.660, 0.135882
2023/06/22 11:02:38.326, True, 1.656, 0.134966
2023/06/22 11:02:38.821, True, 1.684, 0.135882
2023/06/22 11:02:39.326, True, 1.658, 0.136568
2023/06/22 11:02:39.830, True, 1.327, 0.136034
2023/06/22 11:02:40.326, True, 1.683, 0.133822
2023/06/22 11:02:40.830, True, 1.658, 0.133974
2023/06/22 11:02:41.334, True, 1.659, 0.135424
2023/06/22 11:02:41.838, True, 1.326, 0.137636
2023/06/22 11:02:42.334, True, 1.685, 0.133669
2023/06/22 11:02:42.838, True, 1.328, 0.135729
2023/06/22 11:02:43.334, True, 1.345, 0.136873
2023/06/22 11:02:43.838, True, 1.658, 0.134890
2023/06/22 11:02:44.342, True, 1.658, 0.136873
2023/06/22 11:02:44.838, True, 1.685, 0.135424
2023/06/22 11:02:45.341, True, 1.658, 0.134432
2023/06/22 11:02:45.845, True, 1.327, 0.134890
2023/06/22 11:02:46.342, True, 1.685, 0.134661
2023/06/22 11:02:46.846, True, 1.656, 0.135271
2023/06/22 11:02:47.350, True, 1.658, 0.134508
2023/06/22 11:02:47.846, True, 1.685, 0.135424
2023/06/22 11:02:48.350, True, 1.658, 0.135424
2023/06/22 11:02:48.854, True, 1.326, 0.135576
2023/06/22 11:02:49.349, True, 1.685, 0.132372
2023/06/22 11:02:49.854, True, 1.658, 0.135271
2023/06/22 11:02:50.357, True, 1.326, 0.136950
2023/06/22 11:02:50.854, True, 1.685, 0.135348
2023/06/22 11:02:51.358, True, 1.661, 0.136797
2023/06/22 11:02:51.861, True, 1.658, 0.137560
2023/06/22 11:02:52.358, True, 1.683, 0.135424
2023/06/22 11:02:52.862, True, 1.658, 0.134127
2023/06/22 11:02:53.366, True, 1.658, 0.134966
2023/06/22 11:02:53.862, True, 1.684, 0.137026
2023/06/22 11:02:54.365, True, 1.658, 0.134737
2023/06/22 11:02:54.870, True, 1.658, 0.133669
2023/06/22 11:02:55.366, True, 1.685, 0.135653
2023/06/22 11:02:55.870, True, 1.326, 0.135424
2023/06/22 11:02:56.365, True, 1.685, 0.134737
2023/06/22 11:02:56.870, True, 1.658, 0.134813
2023/06/22 11:02:57.374, True, 1.658, 0.133974
2023/06/22 11:02:57.870, True, 1.685, 0.134432
2023/06/22 11:02:58.374, True, 1.658, 0.134737
2023/06/22 11:02:58.878, True, 1.329, 0.134737
2023/06/22 11:02:59.373, True, 1.681, 0.136339
2023/06/22 11:02:59.878, True, 1.327, 0.134890
2023/06/22 11:03:00.381, True, 1.658, 0.135195
2023/06/22 11:03:00.878, True, 1.685, 0.134432
2023/06/22 11:03:01.382, True, 1.658, 0.133822
2023/06/22 11:03:01.886, True, 1.658, 0.133516
2023/06/22 11:03:02.382, True, 2.022, 0.133822
2023/06/22 11:03:02.886, True, 1.657, 0.134661
2023/06/22 11:03:03.390, True, 1.326, 0.137026
2023/06/22 11:03:03.885, True, 1.685, 0.136873
2023/06/22 11:03:04.389, True, 1.658, 0.134203
2023/06/22 11:03:04.885, True, 1.685, 0.131685
2023/06/22 11:03:05.390, True, 1.658, 0.134508
2023/06/22 11:03:05.894, True, 1.658, 0.134661
2023/06/22 11:03:06.398, True, 1.660, 0.135348
2023/06/22 11:03:06.894, True, 1.682, 0.134890
2023/06/22 11:03:07.398, True, 1.327, 0.133135
2023/06/22 11:03:07.894, True, 1.684, 0.134737
2023/06/22 11:03:08.397, True, 1.658, 0.134661
2023/06/22 11:03:08.902, True, 1.658, 0.134661
2023/06/22 11:03:09.397, True, 1.685, 0.133059
2023/06/22 11:03:09.902, True, 1.658, 0.136187
2023/06/22 11:03:10.405, True, 1.658, 0.134279
2023/06/22 11:03:10.902, True, 1.685, 0.134279
2023/06/22 11:03:11.406, True, 1.658, 0.132830
2023/06/22 11:03:11.909, True, 1.660, 0.132143
2023/06/22 11:03:12.406, True, 1.683, 0.134737
2023/06/22 11:03:12.909, True, 1.326, 0.132296
2023/06/22 11:03:13.405, True, 1.687, 0.135348
2023/06/22 11:03:13.909, True, 1.656, 0.133898
2023/06/22 11:03:14.413, True, 1.658, 0.134432
2023/06/22 11:03:14.910, True, 1.685, 0.134432
2023/06/22 11:03:15.413, True, 1.658, 0.134813
2023/06/22 11:03:15.918, True, 1.658, 0.134661
2023/06/22 11:03:16.413, True, 1.685, 0.133822
2023/06/22 11:03:16.918, True, 1.658, 0.133745
2023/06/22 11:03:17.421, True, 1.326, 0.135271
2023/06/22 11:03:17.917, True, 1.685, 0.134737
2023/06/22 11:03:18.422, True, 1.658, 0.133898
2023/06/22 11:03:18.925, True, 1.658, 0.134432
2023/06/22 11:03:19.421, True, 1.688, 0.134813
2023/06/22 11:03:19.925, True, 1.655, 0.133288
2023/06/22 11:03:20.429, True, 1.658, 0.134508
2023/06/22 11:03:20.926, True, 1.685, 0.133898
2023/06/22 11:03:21.430, True, 1.659, 0.135119
2023/06/22 11:03:21.933, True, 1.658, 0.133974
2023/06/22 11:03:22.429, True, 1.685, 0.134203
2023/06/22 11:03:22.934, True, 1.328, 0.133516
2023/06/22 11:03:23.438, True, 1.656, 0.132982
2023/06/22 11:03:23.933, True, 1.684, 0.134661
2023/06/22 11:03:24.437, True, 1.990, 0.133135
2023/06/22 11:03:24.933, True, 1.685, 0.133745
2023/06/22 11:03:25.437, True, 1.658, 0.133135
2023/06/22 11:03:25.941, True, 1.658, 0.131914
2023/06/22 11:03:26.446, True, 1.661, 0.135195
2023/06/22 11:03:26.941, True, 1.682, 0.132525
2023/06/22 11:03:27.445, True, 1.658, 0.133288
2023/06/22 11:03:27.950, True, 1.658, 0.133135
2023/06/22 11:03:28.445, True, 1.685, 0.133974
2023/06/22 11:03:28.950, True, 1.657, 0.133059
2023/06/22 11:03:29.446, True, 1.685, 0.133288
2023/06/22 11:03:29.949, True, 1.658, 0.133288
2023/06/22 11:03:30.454, True, 1.658, 0.132677
2023/06/22 11:03:30.958, True, 1.659, 0.134585
2023/06/22 11:03:31.453, True, 1.683, 0.133288
2023/06/22 11:03:31.957, True, 1.658, 0.131991
2023/06/22 11:03:32.462, True, 1.658, 0.134966
2023/06/22 11:03:32.958, True, 2.022, 0.131685
2023/06/22 11:03:33.462, True, 1.658, 0.133745
2023/06/22 11:03:33.957, True, 1.685, 0.133440
2023/06/22 11:03:34.462, True, 1.658, 0.133364
2023/06/22 11:03:34.966, True, 1.326, 0.134813
2023/06/22 11:03:35.461, True, 1.684, 0.132677
2023/06/22 11:03:35.966, True, 1.658, 0.131838
2023/06/22 11:03:36.469, True, 1.658, 0.134737
2023/06/22 11:03:36.966, True, 1.685, 0.132601
2023/06/22 11:03:37.470, True, 1.658, 0.132219
2023/06/22 11:03:37.966, True, 1.684, 0.132830
2023/06/22 11:03:38.470, True, 1.658, 0.133440
2023/06/22 11:03:38.973, True, 1.326, 0.133898
2023/06/22 11:03:39.469, True, 2.022, 0.131685
2023/06/22 11:03:39.973, True, 1.658, 0.133974
2023/06/22 11:03:40.477, True, 1.658, 0.132067
2023/06/22 11:03:40.973, True, 1.348, 0.134813
2023/06/22 11:03:41.477, True, 1.658, 0.130541
2023/06/22 11:03:41.981, True, 1.658, 0.132982
2023/06/22 11:03:42.477, True, 1.348, 0.132143
2023/06/22 11:03:42.982, True, 1.657, 0.133593
2023/06/22 11:03:43.485, True, 1.990, 0.132753
2023/06/22 11:03:43.982, True, 1.348, 0.133211
2023/06/22 11:03:44.485, True, 1.989, 0.132753
2023/06/22 11:03:44.990, True, 1.658, 0.132143
2023/06/22 11:03:45.485, True, 1.685, 0.132601
2023/06/22 11:03:45.990, True, 1.658, 0.133898
2023/06/22 11:03:46.485, True, 1.348, 0.133745
2023/06/22 11:03:46.990, True, 1.658, 0.130999
2023/06/22 11:03:47.494, True, 1.658, 0.131456
2023/06/22 11:03:47.989, True, 1.348, 0.131456
2023/06/22 11:03:48.493, True, 1.660, 0.135271
2023/06/22 11:03:48.997, True, 1.655, 0.131914
2023/06/22 11:03:49.501, True, 1.990, 0.131228
2023/06/22 11:03:49.998, True, 1.684, 0.132677
2023/06/22 11:03:50.501, True, 1.658, 0.131380
2023/06/22 11:03:51.006, True, 1.658, 0.134432
2023/06/22 11:03:51.501, True, 1.685, 0.134813
2023/06/22 11:03:52.005, True, 1.659, 0.133974
2023/06/22 11:03:52.509, True, 1.660, 0.135195
2023/06/22 11:03:53.005, True, 1.683, 0.132753
2023/06/22 11:03:53.509, True, 1.657, 0.131075
2023/06/22 11:03:54.013, True, 1.658, 0.131609
2023/06/22 11:03:54.509, True, 1.348, 0.132906
2023/06/22 11:03:55.013, True, 1.658, 0.134890
2023/06/22 11:03:55.517, True, 1.658, 0.131685
2023/06/22 11:03:56.021, True, 1.990, 0.133059
2023/06/22 11:03:56.517, True, 1.685, 0.132677
2023/06/22 11:03:57.021, True, 1.657, 0.133898
2023/06/22 11:03:57.525, True, 1.658, 0.132753
2023/06/22 11:03:58.021, True, 1.685, 0.129931
2023/06/22 11:03:58.525, True, 1.992, 0.130999
2023/06/22 11:03:59.029, True, 1.657, 0.132753
2023/06/22 11:03:59.525, True, 1.685, 0.132982
2023/06/22 11:04:00.028, True, 1.661, 0.132219
2023/06/22 11:04:00.533, True, 1.655, 0.132982
2023/06/22 11:04:01.029, True, 1.685, 0.132830
2023/06/22 11:04:01.533, True, 1.661, 0.131075
2023/06/22 11:04:02.037, True, 1.655, 0.131304
2023/06/22 11:04:02.533, True, 1.688, 0.132448
2023/06/22 11:04:03.037, True, 1.655, 0.133059
2023/06/22 11:04:03.541, True, 1.658, 0.135271
2023/06/22 11:04:04.037, True, 1.685, 0.133288
2023/06/22 11:04:04.541, True, 1.326, 0.132067
2023/06/22 11:04:05.045, True, 1.661, 0.132296
2023/06/22 11:04:05.541, True, 1.683, 0.131838
2023/06/22 11:04:06.045, True, 1.658, 0.131456
2023/06/22 11:04:06.549, True, 1.658, 0.132067
2023/06/22 11:04:07.045, True, 1.686, 0.130617
2023/06/22 11:04:07.549, True, 1.657, 0.132067
2023/06/22 11:04:08.053, True, 1.658, 0.130236
2023/06/22 11:04:08.549, True, 1.685, 0.132906
2023/06/22 11:04:09.053, True, 1.326, 0.131685
2023/06/22 11:04:09.557, True, 1.660, 0.132753
2023/06/22 11:04:10.053, True, 1.684, 0.130846
2023/06/22 11:04:10.557, True, 1.325, 0.132372
2023/06/22 11:04:11.061, True, 1.658, 0.129625
2023/06/22 11:04:11.557, True, 1.687, 0.132143